| time (UTC) | temp F | wind direction | speed knots | gust knots | rain 1hr in | rain 24hr in | rain mn in | humidity % | barometer mb |
| 20260906022814 | 58 | 289 | 4.3 | 4.3 | 0.00 | 0.26 | 0.26 | 98 | 1027.0 |
| 20260906021614 | 58 | 271 | 2.6 | 5.2 | 0.00 | 0.26 | 0.26 | 98 | 1027.0 |
| 20260906020414 | 58 | 279 | 4.3 | 5.2 | 0.00 | 0.26 | 0.26 | 98 | 1027.0 |
| 20260906015214 | 58 | 252 | 4.3 | 5.2 | 0.00 | 0.26 | 0.26 | 98 | 1027.0 |
| 20260906014014 | 58 | 252 | 4.3 | 5.2 | 0.00 | 0.26 | 0.26 | 98 | 1027.0 |
| 20260906012814 | 58 | 262 | 3.5 | 4.3 | 0.00 | 0.26 | 0.26 | 97 | 1027.0 |
| 20260906011615 | 58 | 261 | 2.6 | 4.3 | 0.00 | 0.26 | 0.26 | 97 | 1027.0 |
| 20260906010414 | 59 | 239 | 3.5 | 4.3 | 0.00 | 0.25 | 0.25 | 96 | 1027.0 |
| 20260906005214 | 60 | 280 | 2.6 | 4.3 | 0.00 | 0.25 | 0.25 | 96 | 1027.0 |
| 20260906004014 | 60 | 296 | 2.6 | 3.5 | 0.00 | 0.25 | 0.25 | 96 | 1027.0 |
| 20260906002814 | 60 | 284 | 2.6 | 5.2 | 0.00 | 0.25 | 0.25 | 96 | 1027.0 |
| 20260906001614 | 61 | 268 | 5.2 | 6.1 | 0.00 | 0.25 | 0.25 | 97 | 1027.0 |
| 20260906000414 | 61 | 268 | 5.2 | 6.1 | 0.00 | 0.25 | 0.25 | 97 | 1027.0 |
| 20260905235213 | 61 | 303 | 3.5 | 5.2 | 0.00 | 0.25 | 0.25 | 97 | 1026.0 |
| 20260905234014 | 61 | 272 | 4.3 | 4.3 | 0.00 | 0.25 | 0.25 | 97 | 1026.0 |
| 20260905232814 | 61 | 263 | 3.5 | 5.2 | 0.00 | 0.25 | 0.25 | 97 | 1027.0 |
| 20260905231614 | 61 | 270 | 4.3 | 5.2 | 0.00 | 0.25 | 0.25 | 97 | 1026.0 |
| 20260905230413 | 61 | 278 | 4.3 | 5.2 | 0.00 | 0.25 | 0.25 | 97 | 1026.0 |
| 20260905225213 | 61 | 258 | 5.2 | 5.2 | 0.00 | 0.25 | 0.25 | 97 | 1026.0 |
| 20260905224013 | 62 | 249 | 5.2 | 6.1 | 0.00 | 0.25 | 0.25 | 97 | 1026.0 |
| 20260905222813 | 62 | 251 | 4.3 | 6.1 | 0.00 | 0.25 | 0.25 | 96 | 1026.0 |
| 20260905221613 | 62 | 251 | 4.3 | 6.1 | 0.00 | 0.25 | 0.25 | 96 | 1026.0 |
| 20260905220414 | 63 | 254 | 6.1 | 7.0 | 0.01 | 0.25 | 0.25 | 96 | 1026.0 |
| 20260905215213 | 63 | 249 | 5.2 | 9.6 | 0.00 | 0.24 | 0.24 | 96 | 1026.0 |
| 20260905214013 | 63 | 249 | 5.2 | 9.6 | 0.00 | 0.24 | 0.24 | 96 | 1026.0 |
| 20260905212813 | 63 | 264 | 8.7 | 11.3 | 0.00 | 0.24 | 0.24 | 95 | 1026.0 |
| 20260905211613 | 64 | 264 | 13.0 | 17.4 | 0.00 | 0.24 | 0.24 | 91 | 1026.0 |
| 20260905210413 | 64 | 264 | 13.0 | 17.4 | 0.00 | 0.24 | 0.24 | 91 | 1026.0 |
| 20260905205213 | 65 | 313 | 6.1 | 12.2 | 0.00 | 0.07 | 0.07 | 74 | 1025.0 |
| 20260905204013 | 65 | 300 | 6.1 | 6.1 | 0.00 | 0.07 | 0.07 | 72 | 1025.0 |
| 20260905202813 | 65 | 298 | 4.3 | 5.2 | 0.00 | 0.07 | 0.07 | 72 | 1025.0 |
| 20260905201613 | 64 | 276 | 5.2 | 6.1 | 0.00 | 0.07 | 0.07 | 69 | 1025.0 |
| 20260905200413 | 64 | 276 | 5.2 | 6.1 | 0.00 | 0.07 | 0.07 | 69 | 1025.0 |
| 20260905195213 | 64 | 275 | 6.1 | 6.1 | 0.00 | 0.07 | 0.07 | 66 | 1025.0 |
| 20260905194013 | 64 | 275 | 6.1 | 6.1 | 0.00 | 0.07 | 0.07 | 66 | 1025.0 |
| 20260905192813 | 65 | 268 | 5.2 | 7.0 | 0.00 | 0.07 | 0.07 | 62 | 1025.0 |
| 20260905191613 | 65 | 284 | 5.2 | 6.1 | 0.00 | 0.07 | 0.07 | 60 | 1025.0 |
| 20260905190413 | 65 | 273 | 6.1 | 7.0 | 0.00 | 0.07 | 0.07 | 59 | 1025.0 |
| 20260905185213 | 65 | 269 | 5.2 | 8.7 | 0.00 | 0.07 | 0.07 | 56 | 1025.0 |
| 20260905184013 | 65 | 269 | 5.2 | 8.7 | 0.00 | 0.07 | 0.07 | 56 | 1025.0 |
| 20260905182814 | 66 | 289 | 6.1 | 8.7 | 0.00 | 0.07 | 0.07 | 53 | 1024.0 |
| 20260905181613 | 66 | 273 | 7.0 | 10.4 | 0.00 | 0.07 | 0.07 | 51 | 1024.0 |
| 20260905180413 | 66 | 273 | 7.0 | 10.4 | 0.00 | 0.07 | 0.07 | 51 | 1024.0 |
| 20260905175213 | 68 | 246 | 7.0 | 10.4 | 0.00 | 0.07 | 0.07 | 48 | 1024.0 |
| 20260905174013 | 68 | 258 | 7.8 | 12.2 | 0.00 | 0.07 | 0.07 | 48 | 1024.0 |
| 20260905172813 | 69 | 251 | 7.0 | 10.4 | 0.00 | 0.07 | 0.07 | 47 | 1024.0 |
| 20260905171613 | 69 | 262 | 6.1 | 13.0 | 0.00 | 0.07 | 0.07 | 47 | 1024.0 |
| 20260905170413 | 69 | 262 | 6.1 | 13.0 | 0.00 | 0.07 | 0.07 | 47 | 1024.0 |
| 20260905165213 | 69 | 259 | 9.6 | 12.2 | 0.00 | 0.07 | 0.07 | 48 | 1024.0 |
| 20260905164014 | 69 | 253 | 9.6 | 14.8 | 0.00 | 0.07 | 0.07 | 47 | 1024.0 |
| 20260905162813 | 69 | 239 | 12.2 | 18.2 | 0.00 | 0.07 | 0.07 | 46 | 1024.0 |
| 20260905161613 | 69 | 225 | 13.9 | 21.7 | 0.00 | 0.07 | 0.07 | 45 | 1024.0 |
| 20260905160414 | 69 | 230 | 15.6 | 18.2 | 0.00 | 0.07 | 0.07 | 48 | 1024.0 |
| 20260905155214 | 69 | 245 | 12.2 | 17.4 | 0.00 | 0.07 | 0.07 | 50 | 1024.0 |
| 20260905154014 | 69 | 245 | 12.2 | 17.4 | 0.00 | 0.07 | 0.07 | 50 | 1024.0 |
| 20260905152814 | 69 | 252 | 15.6 | 19.1 | 0.00 | 0.07 | 0.07 | 53 | 1024.0 |
| 20260905151613 | 69 | 252 | 14.8 | 18.2 | 0.00 | 0.07 | 0.07 | 54 | 1024.0 |
| 20260905150414 | 68 | 242 | 19.1 | 21.7 | 0.00 | 0.07 | 0.07 | 57 | 1024.0 |
| 20260905145214 | 68 | 257 | 12.2 | 19.1 | 0.00 | 0.07 | 0.07 | 57 | 1024.0 |
| 20260905144013 | 69 | 256 | 10.4 | 20.9 | 0.00 | 0.07 | 0.07 | 56 | 1024.0 |
| 20260905142813 | 68 | 245 | 12.2 | 20.9 | 0.00 | 0.07 | 0.07 | 55 | 1024.0 |
| 20260905141612 | 68 | 239 | 10.4 | 21.7 | 0.00 | 0.07 | 0.07 | 53 | 1024.0 |
| 20260905140412 | 68 | 239 | 10.4 | 21.7 | 0.00 | 0.07 | 0.07 | 53 | 1024.0 |
| 20260905135212 | 67 | 250 | 12.2 | 17.4 | 0.00 | 0.07 | 0.07 | 58 | 1024.0 |
| 20260905134012 | 67 | 249 | 15.6 | 19.1 | 0.00 | 0.07 | 0.07 | 58 | 1024.0 |
| 20260905132812 | 67 | 239 | 10.4 | 17.4 | 0.00 | 0.07 | 0.07 | 57 | 1024.0 |
| 20260905131612 | 67 | 258 | 13.9 | 17.4 | 0.00 | 0.07 | 0.07 | 57 | 1024.0 |
| 20260905130414 | 67 | 258 | 13.9 | 17.4 | 0.00 | 0.07 | 0.07 | 57 | 1024.0 |
| 20260905125214 | 67 | 270 | 11.3 | 14.8 | 0.00 | 0.07 | 0.07 | 59 | 1024.0 |
| 20260905124012 | 67 | 270 | 11.3 | 14.8 | 0.00 | 0.07 | 0.07 | 59 | 1024.0 |
| 20260905122813 | 67 | 241 | 8.7 | 13.0 | 0.00 | 0.07 | 0.07 | 59 | 1024.0 |
| 20260905121612 | 67 | 255 | 7.8 | 11.3 | 0.00 | 0.07 | 0.07 | 58 | 1024.0 |
| 20260905120412 | 66 | 260 | 12.2 | 13.9 | 0.00 | 0.07 | 0.07 | 60 | 1024.0 |
| 20260905115212 | 66 | 238 | 7.8 | 13.0 | 0.00 | 0.07 | 0.07 | 64 | 1024.0 |
| 20260905114013 | 66 | 238 | 7.8 | 13.0 | 0.00 | 0.07 | 0.07 | 64 | 1024.0 |
| 20260905112813 | 66 | 266 | 8.7 | 11.3 | 0.00 | 0.07 | 0.07 | 58 | 1024.0 |
| 20260905111613 | 66 | 239 | 7.8 | 10.4 | 0.00 | 0.07 | 0.07 | 58 | 1024.0 |
| 20260905110414 | 66 | 239 | 7.8 | 10.4 | 0.00 | 0.07 | 0.07 | 58 | 1024.0 |
| 20260905105213 | 66 | 270 | 7.8 | 8.7 | 0.00 | 0.07 | 0.07 | 62 | 1024.0 |
| 20260905104013 | 65 | 268 | 6.1 | 9.6 | 0.00 | 0.07 | 0.07 | 64 | 1024.0 |
| 20260905101613 | 65 | 234 | 4.3 | 7.0 | 0.00 | 0.07 | 0.07 | 71 | 1024.0 |
| 20260905100413 | 65 | 234 | 4.3 | 7.0 | 0.00 | 0.07 | 0.07 | 71 | 1024.0 |
| 20260905095213 | 64 | 229 | 5.2 | 9.6 | 0.00 | 0.07 | 0.07 | 79 | 1023.0 |
| 20260905094014 | 63 | 216 | 7.8 | 8.7 | 0.00 | 0.07 | 0.07 | 85 | 1024.0 |
| 20260905092814 | 62 | 211 | 6.1 | 7.0 | 0.00 | 0.07 | 0.07 | 91 | 1024.0 |
| 20260905091614 | 61 | 220 | 5.2 | 5.2 | 0.00 | 0.07 | 0.07 | 92 | 1024.0 |
| 20260905090414 | 60 | 185 | 2.6 | 5.2 | 0.00 | 0.07 | 0.07 | 93 | 1024.0 |
| 20260905085213 | 59 | 234 | 4.3 | 7.0 | 0.00 | 0.07 | 0.07 | 94 | 1024.0 |
| 20260905084013 | 59 | 234 | 4.3 | 7.0 | 0.00 | 0.07 | 0.07 | 94 | 1024.0 |
| 20260905082814 | 59 | 224 | 3.5 | 7.8 | 0.00 | 0.07 | 0.07 | 94 | 1024.0 |
| 20260905081613 | 59 | 231 | 4.3 | 5.2 | 0.00 | 0.07 | 0.07 | 94 | 1024.0 |
| 20260905080413 | 59 | 231 | 4.3 | 5.2 | 0.00 | 0.07 | 0.07 | 94 | 1024.0 |
| 20260905075213 | 58 | 212 | 2.6 | 4.3 | 0.03 | 0.06 | 0.06 | 94 | 1024.0 |
| 20260905074014 | 58 | 207 | 3.5 | 5.2 | 0.03 | 0.06 | 0.06 | 93 | 1024.0 |
| 20260905072813 | 58 | 214 | 3.5 | 4.3 | 0.03 | 0.06 | 0.06 | 92 | 1023.0 |
| 20260905071613 | 59 | 240 | 3.5 | 6.1 | 0.00 | 0.03 | 0.03 | 91 | 1024.0 |
| 20260905070413 | 59 | 240 | 3.5 | 6.1 | 0.00 | 0.03 | 0.03 | 91 | 1024.0 |
| 20260905065213 | 61 | 247 | 6.1 | 7.8 | 0.00 | 0.02 | 0.02 | 68 | 1024.0 |
| 20260905064013 | 63 | 320 | 7.8 | 12.2 | 0.00 | 0.02 | 0.00 | 58 | 1024.0 |
| 20260905062813 | 64 | 302 | 10.4 | 11.3 | 0.00 | 0.02 | 0.02 | 53 | 1023.0 |
| 20260905061613 | 64 | 295 | 7.8 | 11.3 | 0.00 | 0.02 | 0.02 | 51 | 1023.0 |
| 20260905060413 | 65 | 354 | 7.0 | 13.9 | 0.00 | 0.02 | 0.02 | 48 | 1023.0 |
| 20260905055213 | 66 | 287 | 6.1 | 15.6 | 0.00 | 0.02 | 0.02 | 49 | 1021.0 |
| 20260905054013 | 66 | 287 | 6.1 | 15.6 | 0.00 | 0.02 | 0.02 | 49 | 1021.0 |
| 20260905052812 | 66 | 301 | 9.6 | 13.0 | 0.00 | 0.02 | 0.02 | 51 | 1021.0 |
| 20260905051612 | 67 | 353 | 7.0 | 7.0 | 0.00 | 0.02 | 0.02 | 53 | 1021.0 |
| 20260905050412 | 67 | 11 | 7.0 | 13.0 | 0.00 | 0.02 | 0.02 | 52 | 1021.0 |
| 20260905045213 | 68 | 5 | 7.8 | 12.2 | 0.02 | 0.02 | 0.02 | 56 | 1020.0 |
| 20260905044013 | 69 | 296 | 7.0 | 13.0 | 0.01 | 0.01 | 0.01 | 59 | 1020.0 |
| 20260905042812 | 69 | 286 | 5.2 | 15.6 | 0.01 | 0.01 | 0.01 | 59 | 1020.0 |
| 20260905041613 | 69 | 255 | 5.2 | 6.1 | 0.00 | 0.00 | 0.00 | 62 | 1019.0 |
| 20260905040412 | 69 | 255 | 5.2 | 6.1 | 0.00 | 0.00 | 0.00 | 62 | 1019.0 |
| 20260905035212 | 70 | 266 | 4.3 | 6.1 | 0.00 | 0.00 | 0.00 | 61 | 1019.0 |
| 20260905034012 | 70 | 267 | 4.3 | 5.2 | 0.00 | 0.00 | 0.00 | 60 | 1018.0 |
| 20260905032813 | 70 | 244 | 6.1 | 10.4 | 0.00 | 0.00 | 0.00 | 60 | 1019.0 |
| 20260905031612 | 71 | 249 | 3.5 | 7.0 | 0.00 | 0.00 | 0.00 | 58 | 1018.0 |
| 20260905030412 | 71 | 249 | 3.5 | 7.0 | 0.00 | 0.00 | 0.00 | 58 | 1018.0 |
| 20260905025212 | 71 | 248 | 8.7 | 7.8 | 0.00 | 0.00 | 0.00 | 55 | 1019.0 |
| 20260905024012 | 71 | 248 | 8.7 | 7.8 | 0.00 | 0.00 | 0.00 | 55 | 1019.0 |